Date,Time,Air Temperature,Dewpoint,Windchill,Heat Index,RH,3m Max Wind Speed,3m Mean Wind Speed,3m Wind Direction,Rain,Solar Radiation
,,F,F,F,F,%,MPH,MPH,deg,in,MJ/m^2
2024-05-18,17:05,86.2,50,,86.2,28.7,13.7,7.4,103,0.0,0.12588
2024-05-18,17:10,85.2,49.1,,85.2,28.7,12.1,6.8,146,0.0,0.09324
2024-05-18,17:15,84.3,49.4,,84.3,29.9,15.1,9.5,154,0.0,0.0627
2024-05-18,17:20,84.5,49.2,,84.5,29.4,14.9,10.4,175,0.0,0.12954
2024-05-18,17:25,84.5,49.6,,84.5,29.9,13.2,7.4,125,0.0,0.07176
2024-05-18,17:30,84.6,49.4,,84.6,29.6,14.2,9.3,98,0.0,0.11898
2024-05-18,17:35,85,49.7,,85,29.5,14,7.5,131,0.0,0.11502
2024-05-18,17:40,84.5,48.8,,84.5,29.1,11.9,7.8,158,0.0,0.10836
2024-05-18,17:45,84.4,48.6,,84.4,28.9,13.8,9.8,156,0.0,0.10302
2024-05-18,17:50,84.4,49.3,,84.4,29.7,11.3,6.6,116,0.0,0.09438
2024-05-18,17:55,83.9,50.1,,83.9,31.1,14,8.4,103,0.0,0.04764
2024-05-18,18:00,83.8,50.6,,83.8,31.8,11.1,6.6,104,0.0,0.08004
2024-05-18,18:05,84.1,50.5,,84.1,31.3,11.8,6.9,135,0.0,0.08514
2024-05-18,18:10,83.6,51.6,,83.6,33.2,11.5,6.1,106,0.0,0.06084
2024-05-18,18:15,82.7,52.2,,82.7,34.9,14,6.9,107,0.0,0.02136
2024-05-18,18:20,82,51.7,,82,35.1,16.4,9.1,96,0.0,0.01212
2024-05-18,18:25,81.2,51.5,,81.2,35.7,14.7,9.2,98,0.0,0.0102
2024-05-18,18:30,80.9,50.9,,80.9,35.3,13.1,8.4,95,0.0,0.0111
2024-05-18,18:35,80.7,50.2,,80.7,34.6,7.5,4.6,126,0.0,0.01212
2024-05-18,18:40,79.7,50.2,,79.7,35.8,7.7,4.5,128,0.0,0.01248
2024-05-18,18:45,79.5,50.8,,79.5,36.9,12,6.2,114,0.0,0.01026
2024-05-18,18:50,79.3,51,,79.3,37.4,10,5.7,111,0.0,0.0087
2024-05-18,18:55,78.8,51,,78.8,37.9,10,5.5,113,0.0,0.00756
2024-05-18,19:00,78.4,51,,78.4,38.5,11.5,5.4,121,0.0,0.00636
2024-05-18,19:05,78,51.1,,78,39,9.1,5.5,110,0.0,0.00498
2024-05-18,19:10,77.6,51,,77.6,39.5,8.8,5.4,108,0.0,0.00348
2024-05-18,19:15,76.8,51.1,,76.8,40.7,7.1,4.5,118,0.0,0.003
2024-05-18,19:20,76.1,51.3,,76.1,41.9,5.5,3.6,118,0.0,0.00438
2024-05-18,19:25,76.8,51.2,,76.8,40.9,6,3.9,112,0.0,0.012
2024-05-18,19:30,76.9,51.4,,76.9,41.0,7.2,4.3,114,0.0,0.00972
2024-05-18,19:35,76.4,51.5,,76.4,41.9,6.7,4.1,125,0.0,0.00282
2024-05-18,19:40,76.3,51.5,,76.3,41.9,7.3,4.4,127,0.0,0.00186
2024-05-18,19:45,76.1,51.5,,76.1,42.4,6.4,4.1,130,0.0,0.00132
2024-05-18,19:50,75.6,51.7,,75.6,43.3,6.8,3.7,130,0.0,0.0009
2024-05-18,19:55,74.9,52,,74.9,44.8,4.9,3,112,0.0,0.00078
2024-05-18,20:00,74.1,52.2,,74.1,46.3,4.9,3.3,111,0.0,0.00042
2024-05-18,20:05,73.2,52.3,,73.2,48,5,2.9,117,0.0,0.00012
2024-05-18,20:10,72.2,52.1,,72.2,49.3,5,2.7,127,0.0,0
2024-05-18,20:15,71.5,51.8,,71.5,49.8,4.5,3,122,0.0,0
2024-05-18,20:20,70.5,51.5,,70.5,51.0,5.6,3.8,146,0.0,0
2024-05-18,20:25,70.2,51.1,,70.2,50.8,6.2,4.3,149,0.0,0
2024-05-18,20:30,70.3,50.7,,70.3,49.8,6.2,4.4,145,0.0,0
2024-05-18,20:35,69.7,50.6,,69.7,50.7,5.6,4.2,147,0.0,0
2024-05-18,20:40,68.8,50.7,,68.8,52.5,4.3,2.6,112,0.0,0
2024-05-18,20:45,68.9,50.7,,68.9,52.3,3.1,2.3,105,0.0,0
2024-05-18,20:50,69.5,50.2,,69.5,50.4,7.2,3.2,121,0.0,0
2024-05-18,20:55,69.8,50,,69.8,49.4,4.9,3.8,114,0.0,0
2024-05-18,21:00,69.4,50,,69.4,49.9,5.8,3.8,123,0.0,0
2024-05-18,21:05,68.5,50.2,,68.5,52.1,5.1,2.7,112,0.0,0
2024-05-18,21:10,68.1,50.2,,68.1,52.7,4.5,2.7,106,0.0,0
2024-05-18,21:15,68.3,49.9,,68.3,51.9,7.1,3.4,111,0.0,0
2024-05-18,21:20,68.2,49.8,,68.2,51.7,5.1,3.3,129,0.0,0
2024-05-18,21:25,67.7,49.7,,67.7,52.4,5.3,3.3,141,0.0,0
2024-05-18,21:30,67,49.7,,67,53.8,4,3,145,0.0,0
2024-05-18,21:35,66.6,49.9,,66.6,55.0,4.6,3.1,141,0.0,0
2024-05-18,21:40,66.2,50.1,,66.2,56.2,4.4,2.8,123,0.0,0
2024-05-18,21:45,65.3,50.4,,65.3,58.5,4.9,2.2,89,0.0,0
2024-05-18,21:50,65.8,49.9,,65.8,56.6,3,2.2,46,0.0,0
2024-05-18,21:55,66.2,49.7,,66.2,55.2,6.8,2.9,95,0.0,0
2024-05-18,22:00,66.2,49.6,,66.2,55.0,3.2,1.7,137,0.0,0
2024-05-18,22:05,65.3,49.8,,65.3,57.3,3.4,1.3,165,0.0,0
2024-05-18,22:10,64.9,50.2,,64.9,58.8,4.5,2.7,145,0.0,0
2024-05-18,22:15,66.2,49.8,,66.2,55.6,7,5.1,152,0.0,0
2024-05-18,22:20,65.8,50.1,,65.8,56.9,6,3.8,156,0.0,0
2024-05-18,22:25,65.3,50.1,,65.3,58.1,5,3.8,159,0.0,0
2024-05-18,22:30,64.9,50.3,,64.9,59.3,5.5,4.7,162,0.0,0
2024-05-18,22:35,64.8,50.4,,64.8,59.6,5.9,4.7,163,0.0,0
2024-05-18,22:40,64.8,50.5,,64.8,59.9,6,4.6,165,0.0,0
2024-05-18,22:45,65,50.5,,65,59.4,6.2,5.2,174,0.0,0
2024-05-18,22:50,65.1,50.6,,65.1,59.4,6.7,5.1,175,0.0,0
2024-05-18,22:55,65.2,50.4,,65.2,58.7,8.4,5.4,178,0.0,0
2024-05-18,23:00,65.4,50.1,,65.4,57.6,7.9,6.3,177,0.0,0
2024-05-18,23:05,64.9,49.7,,64.9,57.9,8,6.7,180,0.0,0
2024-05-18,23:10,64.9,49.7,,64.9,57.9,10.3,7.4,176,0.0,0
2024-05-18,23:15,65.4,49.3,,65.4,56.0,11.3,9.1,170,0.0,0
2024-05-18,23:20,66.3,48.9,,66.3,53.4,14.4,10.8,167,0.0,0
2024-05-18,23:25,65.9,49.1,,65.9,54.7,13.6,10.6,164,0.0,0
2024-05-18,23:30,65.3,49.3,,65.3,56.1,13.5,9.6,163,0.0,0
2024-05-18,23:35,65.9,49.8,,65.9,56.0,17.1,10.5,160,0.0,0
2024-05-18,23:40,66.1,50.4,,66.1,57.0,16.7,12.3,162,0.0,0
2024-05-18,23:45,65.7,50.1,,65.7,57.1,15.2,12.5,166,0.0,0
2024-05-18,23:50,65.3,50.1,,65.3,57.9,16.1,12.3,171,0.0,0
2024-05-18,23:55,65.1,50.2,,65.1,58.6,16.4,12.3,175,0.0,0
2024-05-19,00:00,64.2,50.2,,64.2,60.4,17.4,11.9,177,0.0,0
2024-05-19,00:05,63.6,50.5,,63.6,62.1,14.5,10.9,184,0.0,0
2024-05-19,00:10,63,49.1,,63,60.4,13.2,11.2,183,0.0,0
2024-05-19,00:15,63,50.8,,63,64.5,16.3,11.3,182,0.0,0
2024-05-19,00:20,62.7,51.1,,62.7,65.9,15.5,10.9,186,0.0,0
2024-05-19,00:25,62.2,51,,62.2,66.6,14.8,10.9,192,0.0,0
2024-05-19,00:30,62.1,51.2,,62.1,67.5,14.8,11.6,195,0.0,0
2024-05-19,00:35,61.9,51.1,,61.9,67.6,16,11.4,195,0.0,0
2024-05-19,00:40,62.2,51.3,,62.2,67.4,15.4,11.9,192,0.0,0
2024-05-19,00:45,62.1,51.5,,62.1,68.4,15,11.6,187,0.0,0
2024-05-19,00:50,61.8,51.7,,61.8,69.7,14.5,11.5,187,0.0,0
2024-05-19,00:55,61.4,51.8,,61.4,70.7,15,11.5,184,0.0,0
2024-05-19,01:00,61.4,52.1,,61.4,71.3,14.4,11.5,182,0.0,0
2024-05-19,01:05,61.5,52.3,,61.5,71.8,14.1,11.6,178,0.0,0
2024-05-19,01:10,61.4,52.5,,61.4,72.5,15.7,11.9,181,0.0,0
2024-05-19,01:15,61.3,52.7,,61.3,73.3,14.9,12,185,0.0,0
2024-05-19,01:20,61.1,52.9,,61.1,74.5,14.3,11.1,188,0.0,0
2024-05-19,01:25,60.9,53.1,,60.9,75.4,16.2,11.4,186,0.0,0
2024-05-19,01:30,60.8,53.2,,60.8,76.2,13.2,10.8,188,0.0,0
2024-05-19,01:35,60.6,53.2,,60.6,76.7,15.2,11.5,193,0.0,0
2024-05-19,01:40,60.3,53.4,,60.3,78.0,13.6,10.6,195,0.0,0
2024-05-19,01:45,60.3,53.4,,60.3,78.1,16.2,11.6,212,0.0,0
2024-05-19,01:50,60.5,53.2,,60.5,76.9,17.5,13.5,245,0.0,0
2024-05-19,01:55,61,52.7,,61,74.2,18.1,14.2,240,0.0,0
2024-05-19,02:00,61.6,52.3,,61.6,71.5,20.7,12.1,232,0.0,0
2024-05-19,02:05,62.9,52.1,,62.9,67.9,17.1,12.3,222,0.0,0
2024-05-19,02:10,62.5,52.2,,62.5,69.1,16,11.2,206,0.0,0
2024-05-19,02:15,62.1,51.8,,62.1,69.1,14,10.2,203,0.0,0
2024-05-19,02:20,61.8,51.7,,61.8,69.4,9.1,6.6,223,0.0,0
2024-05-19,02:25,61.5,51.6,,61.5,70.0,8.6,5.6,229,0.0,0
2024-05-19,02:30,61.9,51.5,,61.9,68.8,11.3,6.8,231,0.0,0
2024-05-19,02:35,62.1,52.1,,62.1,69.7,9.1,6.4,247,0.0,0
2024-05-19,02:40,58.7,51.9,,58.7,77.9,8.6,7.2,291,0.0,0
2024-05-19,02:45,58.1,51.4,,58.1,78.2,6,4.2,294,0.0,0
2024-05-19,02:50,58.3,50.8,,58.3,76.1,4.3,2.9,343,0.0,0
2024-05-19,02:55,58.4,50.4,,58.4,74.5,2.6,1.8,339,0.0,0
2024-05-19,03:00,58.5,50,,58.5,73.5,2.8,1.6,349,0.0,0
2024-05-19,03:05,58.4,49.6,,58.4,72.5,3.4,0.7,11,0.0,0
2024-05-19,03:10,59.8,49.1,,59.8,67.7,3.7,3,23,0.0,0
2024-05-19,03:15,60,48.8,,60,66.4,5.7,4.1,95,0.0,0
2024-05-19,03:20,56.9,49.3,,56.9,75.6,6.8,4.1,138,0.0,0
2024-05-19,03:25,57.1,49.2,,57.1,74.8,1.5,0.6,93,0.0,0
2024-05-19,03:30,58.5,48.7,,58.5,69.9,3.8,2.2,19,0.0,0
2024-05-19,03:35,58.2,48.6,,58.2,70.4,4.9,3.8,348,0.0,0
2024-05-19,03:40,56.8,48.7,,56.8,74.3,5.9,4.4,317,0.0,0
2024-05-19,03:45,55.3,48.6,,55.3,78.0,5.5,4,292,0.0,0
2024-05-19,03:50,55.1,48.3,,55.1,77.8,5.1,3.3,317,0.0,0
2024-05-19,03:55,55,48.2,,55,77.8,8.3,6.5,339,0.0,0
2024-05-19,04:00,55.1,48.5,,55.1,78.3,10.6,7.8,356,0.0,0
2024-05-19,04:05,56.8,48.6,,56.8,73.9,8.4,5.9,0,0.0,0
2024-05-19,04:10,56.3,48.8,,56.3,76.0,6.4,4.9,343,0.0,0
2024-05-19,04:15,54.8,48.8,,54.8,80.2,7,4.9,342,0.0,0
2024-05-19,04:20,55.9,48.7,,55.9,76.8,5.7,3.9,22,0.0,0
2024-05-19,04:25,55.7,48.5,,55.7,76.7,3.9,2.7,5,0.0,0
2024-05-19,04:30,55.5,48.6,,55.5,77.6,3,1.6,32,0.0,0
2024-05-19,04:35,55.1,48.3,,55.1,77.7,1.3,0.7,25,0.0,0
2024-05-19,04:40,55.7,48.3,,55.7,76.1,1.6,1.1,327,0.0,0
2024-05-19,04:45,56,48.2,,56,74.8,5.7,3.3,294,0.0,0
2024-05-19,04:50,53.6,48.2,,53.6,81.8,7.9,6.4,296,0.0,0
2024-05-19,04:55,53.7,48.3,,53.7,81.8,5.3,4.7,283,0.0,0
2024-05-19,05:00,53.1,48,,53.1,82.9,8.4,6.3,281,0.0,0
2024-05-19,05:05,52.4,47.9,,52.4,84.6,6.6,4.8,258,0.0,0
2024-05-19,05:10,52.3,47.7,,52.3,84.3,6.1,5.3,250,0.0,0
2024-05-19,05:15,53.2,47.8,,53.2,81.9,4.6,3.4,246,0.0,0
2024-05-19,05:20,52.6,47.7,,52.6,83.5,3,1.9,206,0.0,0
2024-05-19,05:25,54.2,47.7,,54.2,78.6,2.2,1.5,196,0.0,0
2024-05-19,05:30,55.8,47.7,,55.8,74.4,2,1.2,223,0.0,0
2024-05-19,05:35,56.1,47.9,,56.1,74.0,5.4,4.3,303,0.0,0.00006
2024-05-19,05:40,53.9,48,,53.9,80.4,5.3,3.1,286,0.0,0.00042
2024-05-19,05:45,54,48.1,,54,80.3,6.4,5.5,311,0.0,0.0009
2024-05-19,05:50,52.3,47.9,,52.3,84.9,5.8,5,290,0.0,0.00186
2024-05-19,05:55,51.7,47.6,,51.7,85.9,8.1,6.8,283,0.0,0.00336
2024-05-19,06:00,51.2,47.5,,51.2,87.3,8.7,6,286,0.0,0.00798
2024-05-19,06:05,51.4,47.4,,51.4,85.9,6.9,5.7,271,0.0,0.01128
2024-05-19,06:10,52.8,47.8,,52.8,83,7.1,5.4,280,0.0,0.01482
2024-05-19,06:15,52.9,48.3,,52.9,84.1,7.7,6.6,279,0.0,0.0192
2024-05-19,06:20,54,48.6,,54,82.0,7.5,6.2,281,0.0,0.024
2024-05-19,06:25,54.5,49.3,,54.5,82.7,6.4,5.1,286,0.0,0.03186
2024-05-19,06:30,55.3,50.1,,55.3,82.9,5.6,4.7,287,0.0,0.0408
2024-05-19,06:35,56.3,50.9,,56.3,82.1,4.9,3.8,283,0.0,0.0474
2024-05-19,06:40,57,51.5,,57,81.8,4.6,2.6,272,0.0,0.03498
2024-05-19,06:45,57.7,51.6,,57.7,80.1,3.4,2.2,288,0.0,0.04824
2024-05-19,06:50,58.3,52.1,,58.3,79.9,4.4,3.3,286,0.0,0.05646
2024-05-19,06:55,58.6,52.7,,58.6,80.9,3.8,3,290,0.0,0.0288
2024-05-19,07:00,58.7,53.2,,58.7,81.9,5.3,3.5,292,0.0,0.03906
2024-05-19,07:05,58.9,53.6,,58.9,82.5,7.4,5,320,0.0,0.03168
2024-05-19,07:10,58.9,54.1,,58.9,84.1,6.3,4.7,330,0.0,0.033
2024-05-19,07:15,59,53.9,,59,83.3,5.3,4.1,324,0.0,0.03192
2024-05-19,07:20,59,54,,59,83.2,6,5,316,0.0,0.02946
2024-05-19,07:25,59,54.2,,59,84.0,6.2,4.6,314,0.0,0.02772
2024-05-19,07:30,59.2,54.3,,59.2,83.7,6.3,5.1,303,0.0,0.04656
2024-05-19,07:35,60.1,54.7,,60.1,82.2,6.4,4.6,306,0.0,0.0534
2024-05-19,07:40,60.9,55.1,,60.9,81.4,5.5,4.5,317,0.0,0.06906
2024-05-19,07:45,61.6,55.7,,61.6,80.9,7.7,5.7,309,0.0,0.09462
2024-05-19,07:50,61.8,55.9,,61.8,81.2,7.5,5.5,306,0.0,0.05514
2024-05-19,07:55,62.7,56.2,,62.7,79.4,6.7,5.2,319,0.0,0.1071
2024-05-19,08:00,63.4,56.5,,63.4,78.3,7.4,5.7,310,0.0,0.11106
2024-05-19,08:05,64.5,56.6,,64.5,75.5,6.8,4.9,321,0.0,0.11556
2024-05-19,08:10,65.3,56.2,,65.3,72.6,6.6,5,332,0.0,0.12054
2024-05-19,08:15,66,56.3,,66,70.9,6.4,3.7,341,0.0,0.1254
2024-05-19,08:20,66.6,55.6,,66.6,67.8,6.1,4.3,1,0.0,0.12996
2024-05-19,08:25,67.2,55.6,,67.2,66.5,5.7,4,26,0.0,0.13494
2024-05-19,08:30,67.9,55.5,,67.9,64.7,6.3,3.7,6,0.0,0.1395
2024-05-19,08:35,69.1,55.6,,69.1,62.2,4.5,2.4,337,0.0,0.14406
2024-05-19,08:40,68.7,55.5,,68.7,62.8,4.8,3.2,3,0.0,0.14874
2024-05-19,08:45,69.3,56.1,,69.3,62.9,6.8,4.3,38,0.0,0.15318
2024-05-19,08:50,69.2,55.7,,69.2,62.1,7.2,4.5,35,0.0,0.1575
2024-05-19,08:55,69.8,55.4,,69.8,60.2,7.9,3.6,5,0.0,0.16206
2024-05-19,09:00,70.6,55.3,,70.6,58.5,3.8,1.9,223,0.0,0.16674
2024-05-19,09:05,71.3,55.6,,71.3,57.5,4.7,1.9,263,0.0,0.1707
2024-05-19,09:10,71.2,55.4,,71.2,57.4,4.4,2.3,56,0.0,0.17508
2024-05-19,09:15,71.5,55.7,,71.5,57.5,7.8,5.1,6,0.0,0.17946
2024-05-19,09:20,71.8,56.2,,71.8,57.9,6.2,3.1,11,0.0,0.18384
2024-05-19,09:25,72.8,56.2,,72.8,56.1,3.7,2.4,144,0.0,0.1878
2024-05-19,09:30,72.4,56,,72.4,56.5,6.1,2.6,173,0.0,0.19188
2024-05-19,09:35,73.8,56.1,,73.8,54.1,5,2.8,51,0.0,0.19608
2024-05-19,09:40,74.7,56.4,,74.7,53.1,6.6,3.6,99,0.0,0.20004
2024-05-19,09:45,74.2,56.5,,74.2,54.0,6,3.3,112,0.0,0.20352
2024-05-19,09:50,74,56.2,,74,53.7,7.3,3.3,166,0.0,0.207
2024-05-19,09:55,74.5,55.9,,74.5,52.3,4.9,3.2,155,0.0,0.21096
2024-05-19,10:00,75.7,56.1,,75.7,50.7,6,3.5,136,0.0,0.21492
2024-05-19,10:05,75.8,56.5,,75.8,51.1,6.5,4,156,0.0,0.21846
2024-05-19,10:10,76,56.7,,76,51.3,7,4.9,118,0.0,0.2217
2024-05-19,10:15,76.1,56.6,,76.1,50.9,8.7,4.5,71,0.0,0.22488
2024-05-19,10:20,77.1,56.9,,77.1,49.7,7.3,4.4,86,0.0,0.22848
2024-05-19,10:25,76.7,56.5,,76.7,49.8,9.3,6.1,162,0.0,0.23202
2024-05-19,10:30,77.6,56.7,,77.6,48.5,10.9,5.1,175,0.0,0.2352
2024-05-19,10:35,77.4,56.6,,77.4,48.7,8.1,4.2,149,0.0,0.23814
2024-05-19,10:40,77.9,57.1,,77.9,48.9,11.6,6.8,116,0.0,0.24072
2024-05-19,10:45,78.2,56.7,,78.2,47.6,9.4,5.6,136,0.0,0.2439
2024-05-19,10:50,78.5,56.5,,78.5,46.9,11.1,6.4,139,0.0,0.24672
2024-05-19,10:55,79.4,56.5,,79.4,45.5,14,7.1,140,0.0,0.24936
2024-05-19,11:00,78.5,56,,78.5,46.0,10,6,167,0.0,0.25146
2024-05-19,11:05,79.8,55.9,,79.8,44,10.3,6.1,146,0.0,0.25368
2024-05-19,11:10,80.1,55.7,,80.3,43.1,16.2,9.1,147,0.0,0.25536
2024-05-19,11:15,79.8,55.1,,79.8,42.6,15.2,8.8,148,0.0,0.25722
2024-05-19,11:20,80.1,55.2,,80.2,42.5,13.8,8.9,172,0.0,0.25932
2024-05-19,11:25,80.6,55.2,,80.5,41.7,16.4,10.8,193,0.0,0.2613
2024-05-19,11:30,82.6,55.1,,82.6,39.0,23.3,11.1,211,0.0,0.26532
2024-05-19,11:35,83.3,53.6,,83.3,36.1,21.6,9,223,0.0,0.26841
2024-05-19,11:40,83.8,52.6,,83.8,34.2,15.2,10.7,213,0.0,0.2766
2024-05-19,11:45,84,51.4,,84,32.5,23.8,17.9,198,0.0,0.27624
2024-05-19,11:50,84.7,50.3,,84.7,30.5,29.6,17.8,214,0.0,0.27894
2024-05-19,11:55,84.8,50,,84.8,30.0,26.9,21.3,213,0.0,0.28392
2024-05-19,12:00,84.3,50.2,,84.3,30.8,25.5,19.6,210,0.0,0.28782
2024-05-19,12:05,84.5,49.9,,84.5,30.2,25.3,18,214,0.0,0.2871
2024-05-19,12:10,84.5,49.5,,84.5,29.8,24.6,17.3,193,0.0,0.28482
2024-05-19,12:15,84.3,50.2,,84.3,30.8,25.3,16.9,205,0.0,0.2862
2024-05-19,12:20,84.2,49.4,,84.2,30.1,32.7,20.9,211,0.0,0.28446
2024-05-19,12:25,84.6,49.6,,84.6,29.8,34.5,20.2,208,0.0,0.28308
2024-05-19,12:30,85.1,49.7,,85.1,29.5,32,19.4,222,0.0,0.28314
2024-05-19,12:35,84.3,49.2,,84.3,29.6,27.2,20.4,209,0.0,0.28404
2024-05-19,12:40,85.4,49.2,,85.4,28.7,27.7,20.6,201,0.0,0.28368
2024-05-19,12:45,85.5,49.4,,85.5,28.7,28.6,22,213,0.0,0.28458
2024-05-19,12:50,84.7,48.5,,84.7,28.5,25.9,19.3,213,0.0,0.28434
2024-05-19,12:55,84.9,49,,84.9,28.9,24.8,18.9,225,0.0,0.2829
2024-05-19,13:00,85.2,50.4,,85.2,30.1,27,17.8,192,0.0,0.28242
2024-05-19,13:05,84.6,49.9,,84.6,30.2,21.4,14.6,219,0.0,0.24468
2024-05-19,13:10,84.8,49.4,,84.8,29.4,25.3,13.8,228,0.0,0.23838
2024-05-19,13:15,84.7,49.2,,84.7,29.3,24.7,16.6,222,0.0,0.28164
2024-05-19,13:20,85.1,49.5,,85.1,29.2,27.7,16.6,225,0.0,0.2793
2024-05-19,13:25,85.5,49.8,,85.5,29.3,20.4,15,212,0.0,0.26898
2024-05-19,13:30,85.7,50.1,,85.7,29.3,19.6,13.3,230,0.0,0.27384
2024-05-19,13:35,85.2,50.2,,85.2,29.9,29.3,22.3,235,0.0,0.27912
2024-05-19,13:40,85.6,50.5,,85.6,29.8,28.9,20.5,210,0.0,0.27828
2024-05-19,13:45,85.6,50.7,,85.6,30,28.6,19.1,212,0.0,0.27984
2024-05-19,13:50,86.2,50.8,,86.2,29.6,32.5,20.6,225,0.0,0.2796
2024-05-19,13:55,85.5,50.4,,85.5,29.9,26.7,19.6,209,0.0,0.27636
2024-05-19,14:00,85.8,49.7,,85.8,28.9,26.5,18.6,226,0.0,0.26892
2024-05-19,14:05,86,50.8,,86,29.7,27.3,19.8,226,0.0,0.27438
2024-05-19,14:10,85.5,50.4,,85.5,29.8,25.9,17.5,216,0.0,0.23604
2024-05-19,14:15,85.6,50.4,,85.6,29.7,26.3,20,218,0.0,0.2229
2024-05-19,14:20,84.8,49.6,,84.8,29.6,28.1,19.6,193,0.0,0.1881
2024-05-19,14:25,86.5,50.2,,86.5,28.8,27.1,19.4,203,0.0,0.27036
2024-05-19,14:30,87,49.4,,87,27.5,31.8,22,217,0.0,0.2643
2024-05-19,14:35,86.4,48.9,,86.4,27.4,25.1,19.6,200,0.0,0.26478
2024-05-19,14:40,85.8,48.5,,85.8,27.5,20.1,12.7,214,0.0,0.17346
2024-05-19,14:45,87.2,47.1,,87.2,25,39.9,24.8,206,0.0,0.2655
2024-05-19,14:50,87.4,46.7,,87.4,24.5,27.8,18,237,0.0,0.25674
2024-05-19,14:55,87.9,44.9,,87.9,22.5,33.9,24.2,243,0.0,0.25002
2024-05-19,15:00,87.5,44.5,,87.5,22.5,27.2,20.1,230,0.0,0.24468
2024-05-19,15:05,87.7,43.6,,87.7,21.6,33.7,22.3,227,0.0,0.24144
2024-05-19,15:10,87.7,42.5,,87.7,20.7,33.1,24.4,237,0.0,0.23784
2024-05-19,15:15,87.4,42.1,,87.4,20.6,45.6,27.9,235,0.0,0.23334
2024-05-19,15:20,87.9,42.4,,87.9,20.4,33,23.4,235,0.0,0.23052
2024-05-19,15:25,87.4,43,,87.4,21.2,32.5,23,226,0.0,0.22764
2024-05-19,15:30,87.3,43.4,,87.3,21.6,34.5,24.8,210,0.0,0.22374
2024-05-19,15:35,87.2,42.5,,87.2,21.0,34.7,25.5,214,0.0,0.21954
2024-05-19,15:40,87.6,43,,87.6,21.1,32.1,22.5,237,0.0,0.21648
2024-05-19,15:45,87.2,43.2,,87.2,21.5,31.5,22.3,233,0.0,0.2124
2024-05-19,15:50,87.5,42.4,,87.5,20.7,26.8,19.5,229,0.0,0.20796
2024-05-19,15:55,87.5,42.7,,87.5,20.9,32.9,23.4,232,0.0,0.20334
2024-05-19,16:00,87.1,42.4,,87.1,21.0,31.1,23.2,232,0.0,0.19788
2024-05-19,16:05,87.1,42.4,,87.1,20.9,29.5,19.8,230,0.0,0.19362
2024-05-19,16:10,87.7,42.5,,87.7,20.7,28,21.5,237,0.0,0.18966
2024-05-19,16:15,87.3,41.8,,87.3,20.4,33.5,20.5,240,0.0,0.18534
2024-05-19,16:20,87.3,41.9,,87.3,20.5,33.6,21.3,236,0.0,0.18114
2024-05-19,16:25,86.8,41.1,,86.8,20.2,34.8,22.1,242,0.0,0.17604
2024-05-19,16:30,86.7,41.1,,86.7,20.2,31,21.7,229,0.0,0.17148
2024-05-19,16:35,86.9,41,,86.9,20,31.4,21.7,235,0.0,0.1677
2024-05-19,16:40,86.5,40.7,,86.5,20.0,27.7,19.4,238,0.0,0.16278
2024-05-19,16:45,86.6,41.1,,86.6,20.3,30,21.1,241,0.0,0.15786
2024-05-19,16:50,,,,,,,,,,
2024-05-19,16:55,,,,,,,,,,
2024-05-19,17:00,,,,,,,,,,
